User: anonymous   Login
Location: Fort Wayne
(41.1310°N, 85.1290°W)
Time: 23:38:26
(UTC-04:00)
Language:

Cosmos 2227 Rocket - Orbit

View from above orbital plane
View from above orbital plane
View from above satellite
View from above satellite

Ground track
Ground track

The orbit data is extracted from the following two-line orbital elements,

1 22285U 92093B   16241.07424429 -.00000134  00000-0 -44592-4 0  9996
2 22285  71.0217 107.1564 0005813 234.9087 125.1491 14.15001762221075
Epoch (UTC): 28 August 2016 01:46:54
Eccentricity: 0.0005813
inclination: 71.0217°
perigee height: 838 km
apogee height: 846 km
right ascension of ascending node: 107.1564°
argument of perigee: 234.9087°
revolutions per day: 14.15001762
mean anomaly at epoch: 125.1491°
orbit number at epoch: 22107

The dashed part of the orbit path shows where the satellite is in the earth's shadow,  

DLR